Find Starlink 36930

NORAD ID: 68018 Int'l Des: 2026-040 Owner: SPXS Country: US Constellation: starlink operational
LEOCIRCULARRETROGRADE

实时位置

正在加载3D地球...

关于 Starlink 36930

正在加载描述...

即将过境

Passes for default location (London). Set your location on the main map for personalized predictions.

高度历史

Loading altitude history...

两行轨道根数

1 68018U 26040D 26106.43443428 .00015292 00000-0 47493-3 0 9991
2 68018 97.2851 55.9321 0001604 94.8359 265.3067 15.33451403 7242
Epoch: Apr 16, 2026 • Age: 16 hours

当前状态

高度 476.7 km
速度 7.63 km/s
星下点 71.22°N, 153.36°E
发射日期 Mar 1, 2026
运行时间 0.1 years
类型 internet

技术详情

分类 Payload
质量 575.00 kg
干质量 530.00 kg
总质量 575.00 kg
长度 0.30 m
直径 4.10 m
跨度 29.00 m
形状 Box + pan
制造商 SPXS
平台类型 Starlink V2MO
阶段状态 In Orbit
所有者/国家 SPXS/US

Most Searched